Location: Newark
(48.2308°N, 120.8549°W)
Time: 01:26:48
(UTC+00:00)

A-11 Canister half - All Passes

Search period start: 26 May 2020 00:00
Search period end: 05 June 2020 00:00
Orbit: 1525 x 1683 km, 47.3° (Epoch: 23 May)

Date Brightness Start Highest point End Pass type
(mag) Time Alt. Az. Time Alt. Az. Time Alt. Az.
26 May - 00:56:30 10° W 01:01:16 15° SW 01:06:07 10° SSW daylight
26 May - 14:14:41 10° SSE 14:19:31 15° SE 14:24:22 10° E daylight
26 May - 16:13:50 10° SW 16:22:35 47° SE 16:31:31 10° ENE daylight
26 May - 18:17:35 10° WSW 18:26:59 81° SSE 18:36:42 10° E daylight
26 May - 20:22:30 10° W 20:32:02 80° SSW 20:41:54 10° ESE daylight
26 May - 22:27:29 10° WNW 22:36:31 47° SW 22:45:49 10° SE daylight
27 May - 00:34:33 10° W 00:39:44 16° SW 00:44:59 10° SSW daylight
27 May - 13:53:37 10° SSE 13:58:00 14° SE 14:02:23 10° E daylight
27 May - 15:52:20 10° SSW 16:00:59 45° SE 16:09:50 10° ENE daylight
27 May - 17:55:59 10° WSW 18:05:21 80° SSE 18:15:02 10° E daylight
27 May - 20:00:53 10° W 20:10:24 81° S 20:20:14 10° ESE daylight
27 May - 22:05:51 10° WNW 22:14:55 48° SW 22:24:15 10° SE daylight
28 May - 00:12:38 10° W 00:18:10 17° SW 00:23:48 10° SSW daylight
28 May - 13:32:39 10° SSE 13:36:29 13° ESE 13:40:20 10° E daylight
28 May - 15:30:50 10° SSW 15:39:24 44° SE 15:48:09 10° ENE daylight
28 May - 17:34:21 10° WSW 17:43:42 79° SSE 17:53:22 10° E daylight
28 May - 19:39:15 10° W 19:48:44 82° S 19:58:34 10° ESE daylight
28 May - 21:44:12 10° WNW 21:53:18 50° SSW 22:02:41 10° SE daylight
28 May - 23:50:47 10° W 23:56:37 18° SW 00:02:35 10° SSW daylight
29 May - 13:11:46 10° SE 13:14:58 12° ESE 13:18:10 10° ESE daylight
29 May - 15:09:20 10° SSW 15:17:50 42° SE 15:26:29 10° ENE daylight
29 May - 17:12:45 10° WSW 17:22:05 78° SSE 17:31:41 10° E daylight
29 May - 19:17:37 10° W 19:27:05 83° S 19:36:53 10° ESE daylight
29 May - 21:22:34 10° WNW 21:31:41 52° SSW 21:41:06 10° SE daylight
29 May - 23:28:56 10° W 23:35:04 19° SW 23:41:20 10° SSW daylight
30 May - 12:51:07 10° SE 12:53:27 11° ESE 12:55:47 10° ESE daylight
30 May - 14:47:51 10° SSW 14:56:16 40° SE 15:04:48 10° ENE daylight
30 May - 16:51:09 10° WSW 17:00:27 77° SSE 17:10:01 10° E daylight
30 May - 18:56:00 10° W 19:05:27 83° S 19:15:13 10° ESE daylight
30 May - 21:00:56 10° WNW 21:10:05 53° SSW 21:19:31 10° SE daylight
30 May - 23:07:08 10° W 23:13:31 20° SW 23:20:02 10° S daylight
31 May - 12:31:12 10° SE 12:31:57 10° ESE 12:32:42 10° ESE daylight
31 May - 14:26:23 10° SSW 14:34:41 39° SE 14:43:07 10° ENE daylight
31 May - 16:29:32 10° WSW 16:38:50 75° SSE 16:48:22 10° E daylight
31 May - 18:34:22 10° W 18:43:48 84° S 18:53:33 10° ESE daylight
31 May - 20:39:18 10° WNW 20:48:28 55° SSW 20:57:56 10° SE daylight
31 May - 22:45:20 10° W 22:51:57 21° SW 22:58:44 10° S daylight
01 Jun - 14:04:55 10° SSW 14:13:07 37° SE 14:21:26 10° ENE daylight
01 Jun - 16:07:56 10° WSW 16:17:12 74° SSE 16:26:41 10° E daylight
01 Jun - 18:12:44 10° W 18:22:09 85° S 18:31:52 10° E daylight
01 Jun - 20:17:40 10° WNW 20:26:51 57° SSW 20:36:19 10° SE daylight
01 Jun - 22:23:34 10° W 22:30:24 22° SW 22:37:24 10° S daylight
02 Jun - 13:43:26 10° SSW 13:51:33 36° SE 13:59:45 10° ENE daylight
02 Jun - 15:46:19 10° WSW 15:55:34 73° SSE 16:05:02 10° E daylight
02 Jun - 17:51:07 10° W 18:00:31 85° S 18:10:12 10° E daylight
02 Jun - 19:56:02 10° WNW 20:05:14 58° SSW 20:14:44 10° SE daylight
02 Jun - 22:01:49 10° W 22:08:51 24° SW 22:16:02 10° S daylight
03 Jun - 13:22:00 10° SSW 13:30:00 34° SE 13:38:04 10° ENE daylight
03 Jun - 15:24:44 10° WSW 15:33:57 71° SSE 15:43:23 10° ENE daylight
03 Jun - 17:29:29 10° W 17:38:52 85° S 17:48:32 10° E daylight
03 Jun - 19:34:24 10° WNW 19:43:37 60° SSW 19:53:08 10° SE daylight
03 Jun - 21:40:05 10° W 21:47:17 25° SW 21:54:40 10° S daylight
04 Jun - 13:00:33 10° SSW 13:08:26 32° SE 13:16:22 10° ENE daylight
04 Jun - 15:03:08 10° WSW 15:12:20 70° SSE 15:21:43 10° ENE daylight
04 Jun - 17:07:51 10° W 17:17:14 86° S 17:26:51 10° E daylight
04 Jun - 19:12:47 10° WNW 19:22:00 62° SSW 19:31:30 10° SE daylight
04 Jun - 21:18:22 10° W 21:25:43 26° SW 21:33:16 10° S daylight
